Wind_Speed
18 12 13 15 15 19 19 19 17 10 10 16 17 14 13 11 12 15 12 14 18 16 16 19 17 19 21 18 15 14 16 17 18 17 16 16 17 16 14 15 14 12 10 11 13 13 13 14 15 14 13 14 16 17 18 18 16 15 15 14 13 13 15 17 18 19 19 19 19 18 18 19 18 17 17 16 14 11 10 10 9 8 7 6 5 4
18 13 14 18 17 18 18 19 17 11 10 15 15 13 13 12 11 15 14 13 16 13 12 17 18 18 20 17 16 16 15 15 17 17 16 17 16 15 15 16 14 10 10 12 13 12 13 15 15 14 13 14 16 16 17 18 17 16 15 15 14 14 16 19 20 22 22 20 20 19 18 19 19 18 17 16 14 12 11 10 9 7 7 6 4 3
15 14 16 18 16 16 18 19 17 13 13 13 12 11 11 11 10 11 14 13 13 10 10 16 16 15 18 17 16 17 15 15 18 18 17 18 18 16 16 16 14 11 11 13 14 13 14 14 16 16 15 15 16 16 16 18 18 17 16 16 15 16 17 19 20 23 23 22 22 21 20 20 19 17 16 14 13 13 11 10 9 7 7 6 4 3
13 14 16 17 15 16 18 21 18 12 12 11 11 11 10 12 12 8 12 15 13 10 9 12 13 11 14 14 13 15 17 17 18 18 17 16 17 16 16 14 13 14 13 14 15 15 15 15 16 18 17 16 17 17 16 18 19 18 17 18 18 18 18 18 18 20 22 22 23 21 20 20 19 18 17 14 13 13 11 10 9 7 7 5 4 3
14 13 16 17 15 17 18 20 19 12 9 12 12 12 10 14 14 8 11 14 12 11 10 9 10 10 12 13 12 12 15 16 16 16 16 15 15 15 14 13 13 14 14 15 16 17 16 16 17 18 19 17 17 18 18 19 20 19 19 20 20 17 16 17 18 19 20 21 21 21 20 21 21 19 18 15 14 13 11 9 8 8 7 6 4 2
14 13 16 19 16 17 18 17 19 15 9 11 14 14 12 14 14 10 12 14 10 10 12 11 9 8 12 15 14 13 13 14 13 14 16 16 17 16 15 15 15 14 13 13 15 17 17 17 17 18 20 19 18 18 19 20 21 19 19 21 20 16 16 16 18 21 21 20 21 24 26 26 23 20 18 15 14 13 11 10 9 8 7 6 4 2
11 13 15 19 19 19 18 15 19 18 10 9 12 13 12 13 14 12 14 14 8 8 13 15 11 7 11 15 15 15 15 16 14 13 16 17 18 18 18 18 17 15 14 13 14 16 17 17 17 19 22 21 19 18 19 19 20 19 20 21 20 18 18 18 19 23 23 21 23 26 27 26 22 20 18 15 13 13 12 11 10 8 7 5 4 3
12 15 16 19 19 17 15 13 18 20 12 8 14 14 11 13 15 14 13 12 8 6 10 15 14 8 8 12 15 17 16 17 16 14 16 18 19 20 20 19 16 15 14 14 15 17 19 19 18 19 21 21 19 19 20 20 21 22 22 22 19 17 19 19 21 23 22 21 23 25 25 23 21 18 16 15 13 13 13 12 11 9 7 6 4 3
14 16 17 19 18 14 13 13 18 22 13 7 16 16 11 12 14 13 11 10 8 5 7 14 15 10 6 7 12 16 16 17 18 18 18 20 21 21 20 18 16 15 15 15 16 18 19 19 19 19 19 19 19 20 21 20 22 25 23 21 20 19 19 19 20 20 20 21 22 25 24 21 19 18 17 16 15 15 13 13 12 10 8 7 5 3
12 15 16 18 14 11 14 14 19 22 12 9 16 15 11 10 10 11 10 9 7 6 9 14 16 11 7 7 10 12 15 16 17 18 18 20 22 21 20 20 18 16 15 15 16 17 19 19 18 18 18 18 19 20 19 18 22 26 23 19 20 21 20 18 19 18 18 20 22 25 24 20 20 21 18 15 15 16 14 13 13 11 8 7 5 2
12 16 15 14 12 11 14 14 18 22 13 12 15 12 10 9 8 8 7 7 7 8 11 15 18 14 9 8 10 10 13 16 15 14 16 19 21 22 21 21 19 17 16 16 16 17 18 19 17 17 18 18 18 19 18 18 20 22 22 21 21 23 23 21 20 18 17 19 23 24 23 21 21 19 16 15 15 16 15 13 13 11 9 6 4 2
11 16 13 13 15 14 14 13 17 21 14 12 13 11 10 8 7 6 6 6 7 8 11 14 17 16 11 8 9 12 16 16 13 14 15 17 20 22 21 20 19 19 18 18 18 18 18 19 18 18 19 18 18 17 18 21 20 17 17 21 24 27 27 24 23 21 20 21 24 24 22 22 19 14 15 16 16 16 15 13 13 11 9 7 4 2
10 14 14 15 17 16 15 12 14 17 14 12 12 11 11 9 7 8 9 8 8 7 8 13 14 13 11 7 5 10 15 16 14 14 14 17 21 23 23 21 20 20 20 20 19 19 20 21 20 20 19 18 18 17 17 21 21 17 16 17 24 30 28 26 26 23 22 22 23 22 21 20 16 13 16 17 16 15 14 12 12 11 9 7 5 3
9 13 17 16 14 17 17 12 12 14 14 14 13 12 11 9 9 10 9 8 9 6 5 10 12 9 9 8 8 10 10 13 15 15 15 15 16 19 21 20 19 19 20 20 20 21 21 23 22 21 19 17 17 17 18 20 19 19 18 17 24 31 29 27 26 24 23 24 23 22 21 18 16 16 19 19 17 15 13 11 12 11 9 7 6 5
10 11 16 16 13 17 18 13 13 14 14 14 13 11 10 8 7 8 8 9 10 8 7 9 9 8 7 5 8 11 10 10 13 13 14 11 8 11 14 16 17 19 21 21 21 22 23 23 22 20 18 17 17 17 19 20 19 20 21 22 26 30 29 28 26 26 26 25 23 23 23 19 16 18 19 18 17 15 13 11 12 10 8 7 7 5
12 10 15 17 14 17 17 14 15 14 11 12 11 11 10 7 5 4 2 3 6 7 8 8 6 5 5 2 3 7 9 10 11 11 12 10 9 11 13 16 18 19 21 22 23 23 23 22 21 19 18 17 17 19 20 21 21 22 23 23 23 25 28 27 26 26 27 25 25 25 24 21 18 18 18 16 15 14 12 12 13 10 8 7 6 4
10 9 16 18 15 19 18 14 17 14 10 10 11 12 10 7 4 4 3 4 3 6 6 8 7 5 4 5 7 9 9 9 11 11 12 12 12 14 15 17 19 20 22 23 23 23 23 23 21 20 18 18 19 20 21 22 23 24 23 23 23 24 27 27 25 26 25 25 27 26 24 22 19 19 17 16 17 16 14 14 13 10 8 7 5 3
9 8 16 19 14 19 20 15 15 15 10 8 10 11 9 4 3 5 5 4 6 7 5 8 10 9 6 5 8 13 13 11 11 11 12 11 13 15 16 17 19 20 21 21 21 21 22 22 21 19 18 18 19 20 22 22 22 24 24 26 26 25 26 27 27 27 26 26 28 27 25 24 21 19 18 18 19 18 17 16 14 10 8 7 4 3
10 7 13 17 14 17 19 13 12 15 12 8 9 9 8 6 5 6 6 6 9 7 5 8 10 10 9 5 7 11 14 14 12 12 11 12 14 15 16 17 19 20 20 20 20 19 20 21 19 19 18 18 19 21 22 21 21 24 25 25 25 23 24 27 28 28 27 28 29 27 25 23 22 21 20 20 21 20 19 16 14 11 8 7 5 4
9 5 10 16 16 16 15 10 10 12 10 9 9 9 7 7 6 7 5 4 8 7 5 7 8 8 8 8 7 8 12 14 14 12 11 12 14 15 16 17 18 19 19 18 19 19 19 19 19 19 19 19 20 22 23 21 22 24 24 23 22 22 26 29 29 28 28 29 28 26 25 23 21 22 22 21 21 22 20 16 14 11 8 7 5 5
8 5 9 14 16 15 12 10 11 12 11 9 10 10 9 7 6 7 6 4 5 6 6 6 6 6 7 8 9 7 8 11 12 11 9 10 13 15 15 16 17 17 17 17 17 18 18 19 19 19 19 19 21 23 22 22 22 22 21 22 23 25 29 31 30 30 29 28 27 25 24 23 22 23 22 22 23 22 20 17 14 11 9 8 6 7
6 6 10 13 14 13 12 12 12 13 13 10 8 10 10 8 7 8 7 6 5 4 5 5 5 4 5 7 10 9 5 6 7 7 7 9 13 15 15 15 16 16 16 17 17 18 19 19 18 18 19 21 23 23 23 23 23 22 23 25 25 27 31 32 31 32 30 28 28 25 22 23 24 24 23 23 24 22 20 18 14 12 10 8 7 9
3 4 10 12 11 12 14 14 12 13 15 12 9 9 10 9 8 7 6 7 6 3 1 3 3 2 4 4 5 5 2 3 4 4 5 9 13 14 15 16 16 16 17 17 18 18 19 19 18 18 19 21 22 22 23 24 23 24 26 27 26 28 32 31 29 30 29 27 27 25 22 24 26 24 23 23 24 23 20 18 15 13 11 8 8 11
2 3 9 11 10 11 13 14 11 12 14 12 10 10 10 10 10 8 5 6 7 5 3 3 4 3 5 4 2 4 3 2 2 3 6 9 12 14 16 17 17 17 17 17 18 18 18 18 19 19 19 20 20 21 23 24 23 26 28 28 25 25 28 30 30 28 25 25 26 25 24 26 26 24 23 25 25 23 21 19 16 14 11 7 8 12
5 5 9 10 11 11 10 11 11 12 12 10 10 11 12 13 13 10 6 4 6 7 5 4 4 4 5 4 5 5 4 4 4 4 7 10 12 15 16 17 18 17 17 18 17 18 19 19 19 19 19 19 19 21 23 23 23 26 29 27 25 23 24 28 29 26 23 24 25 26 26 26 25 24 25 26 26 24 21 19 17 15 12 9 9 12
6 6 9 10 11 11 11 11 12 12 11 10 12 15 15 16 16 11 7 6 6 6 5 4 3 7 7 6 6 6 5 6 6 7 8 10 13 15 15 16 17 16 17 18 18 19 20 20 20 19 19 19 19 20 23 24 24 25 26 25 23 23 23 25 26 24 23 24 26 27 27 26 25 25 27 27 26 23 21 20 18 15 12 10 10 12
4 6 9 10 10 10 9 9 11 13 13 12 16 18 17 17 17 11 7 7 7 5 5 7 3 4 6 7 6 5 4 5 7 8 9 10 12 14 14 15 15 15 16 17 19 20 20 20 19 19 19 18 19 20 21 23 24 24 25 24 22 23 24 25 26 24 22 23 26 27 25 23 24 26 27 27 25 23 21 21 18 15 13 10 10 12
5 7 8 7 11 12 7 6 10 14 15 15 17 18 17 17 17 13 9 8 8 6 7 9 7 3 3 5 5 4 3 4 6 7 9 11 11 12 13 14 15 15 16 18 19 20 20 19 18 19 18 18 19 20 20 20 21 23 25 26 24 23 23 25 26 23 21 22 26 26 22 20 23 27 27 25 24 22 21 21 19 16 13 11 11 13
5 7 6 6 11 11 7 7 11 15 15 15 16 17 18 18 17 16 12 9 9 9 5 3 4 6 4 1 5 6 4 2 5 7 9 11 12 12 13 15 16 16 17 18 18 19 20 19 18 18 18 18 19 20 20 20 21 23 26 27 24 21 21 24 26 24 22 24 27 25 22 23 26 28 27 25 24 22 21 21 19 16 14 11 11 13
4 4 5 5 9 9 6 7 12 15 15 15 16 17 18 18 16 16 14 9 9 10 4 3 3 6 5 3 4 5 4 3 6 8 9 11 12 13 14 15 16 16 17 18 18 18 19 18 18 18 18 18 19 19 20 22 23 23 25 26 24 21 20 21 25 25 23 25 27 26 24 26 29 29 27 27 26 23 22 22 19 16 14 13 12 14
5 3 4 3 6 10 9 7 10 15 16 15 16 17 18 18 16 16 16 10 8 11 8 5 7 6 1 2 3 4 3 5 7 9 10 11 13 14 14 16 16 16 17 18 18 18 19 18 18 18 18 18 19 20 19 20 22 22 23 25 23 21 20 20 22 24 22 22 26 28 27 27 29 30 28 26 24 22 23 22 19 16 15 15 15 15
5 3 4 4 5 9 12 10 10 14 15 15 16 18 19 19 16 15 15 12 11 11 10 9 8 4 3 4 3 4 4 5 7 9 9 10 13 15 15 15 16 16 17 18 18 18 18 19 19 18 19 19 20 21 19 19 19 18 21 25 24 21 21 21 21 23 22 21 21 26 28 28 29 29 27 25 24 23 23 22 19 17 16 17 17 17
4 3 3 4 4 7 13 14 11 11 12 12 14 18 19 17 15 15 15 15 15 12 9 8 6 1 4 2 1 2 4 4 5 8 9 10 12 14 14 14 15 16 17 18 19 19 18 19 18 18 19 19 19 21 21 20 18 16 18 23 25 25 25 25 22 21 23 23 20 21 27 28 27 26 25 24 24 24 24 22 19 17 17 18 18 18
2 3 2 2 2 7 14 14 10 10 10 6 6 13 19 18 16 16 15 15 16 12 10 10 6 4 5 5 5 3 0 2 3 6 8 9 11 13 14 14 14 15 16 17 17 18 17 17 17 17 18 17 16 19 21 21 19 17 18 19 21 24 24 24 23 21 23 24 22 21 24 26 25 24 24 24 24 25 25 22 18 16 16 17 18 19
2 1 1 2 2 6 12 12 9 9 6 2 3 6 13 16 17 17 16 17 17 15 15 15 11 8 7 7 7 5 3 1 1 5 8 9 10 11 12 14 14 15 16 16 17 17 17 16 16 17 18 17 15 16 19 21 21 20 19 18 18 19 19 19 22 23 24 26 26 24 24 24 25 25 24 25 25 26 25 21 17 15 16 17 19 21
4 2 1 2 2 5 9 10 7 5 5 6 4 4 6 9 13 14 14 17 17 16 17 15 12 9 7 6 7 5 2 1 2 5 8 9 10 10 11 12 14 15 16 16 16 17 17 16 14 15 17 18 16 15 16 18 21 21 20 18 18 17 16 16 17 19 22 25 26 24 23 25 26 26 25 27 28 28 25 21 16 13 14 18 21 22
4 3 2 2 1 4 8 8 5 4 6 5 5 5 6 6 10 11 10 11 14 16 14 12 11 10 6 5 6 4 2 2 3 5 9 10 10 10 10 11 13 14 14 14 15 15 15 15 14 14 15 17 18 17 15 14 16 19 19 21 23 21 18 16 17 19 22 24 23 22 23 26 28 28 27 28 30 29 25 20 16 13 15 20 24 25
3 3 4 2 1 3 7 8 6 6 7 5 6 7 4 2 5 8 8 9 12 15 14 11 11 10 6 5 5 3 3 5 4 6 11 12 11 11 10 10 12 14 14 14 14 14 14 15 15 15 14 15 16 17 17 15 14 15 16 19 22 21 16 14 17 22 25 24 22 21 23 26 28 30 28 26 28 29 24 19 17 14 16 21 24 25
5 4 5 4 3 4 6 8 7 5 3 4 7 7 5 4 6 7 7 8 9 11 13 12 11 9 6 5 5 5 5 5 2 7 12 14 13 12 12 12 13 14 14 13 14 13 13 14 14 14 14 14 14 15 16 16 14 14 16 18 19 19 17 15 17 21 26 27 23 21 24 27 27 28 27 26 29 29 24 19 17 14 16 21 24 25
6 4 4 5 4 5 5 6 6 3 3 5 6 5 5 6 8 8 9 7 5 6 9 11 10 8 7 7 6 4 3 2 3 7 11 15 14 12 12 13 14 14 14 13 13 13 13 13 13 13 13 13 13 13 13 14 15 14 14 17 20 22 23 22 21 21 25 27 23 21 26 30 28 26 28 29 31 29 23 19 16 14 18 23 25 27
6 5 4 5 5 5 5 5 5 4 3 4 4 4 6 8 8 9 7 3 4 4 5 6 7 7 7 8 7 3 2 3 2 6 11 14 16 14 12 13 15 15 14 14 13 13 13 13 13 12 11 11 11 10 9 11 14 14 13 14 18 21 24 24 23 22 24 26 24 23 28 32 28 25 27 29 29 28 23 19 16 15 19 24 26 27
4 4 4 4 5 5 5 5 5 4 3 3 4 5 6 7 7 5 2 2 2 1 2 4 5 6 7 9 6 1 4 4 5 10 13 14 16 17 15 14 17 17 15 14 13 13 13 13 12 11 11 10 10 9 9 11 12 12 13 16 18 18 19 20 20 21 23 25 25 24 28 33 31 28 28 27 26 26 22 18 16 16 20 25 26 27
1 3 5 5 3 4 6 6 4 4 3 3 2 5 4 3 2 2 2 2 2 1 1 3 5 6 7 8 6 1 3 6 10 13 14 14 16 18 17 16 17 17 15 14 14 13 12 12 12 12 12 11 9 8 10 12 13 13 14 16 18 16 15 16 18 20 22 23 24 24 27 33 35 33 30 27 25 24 21 19 18 20 23 26 27 27
2 2 4 4 1 3 6 5 1 2 3 3 2 2 1 2 4 4 3 2 3 2 0 2 3 6 8 8 6 3 3 7 11 14 16 17 18 18 18 17 17 17 15 14 14 13 12 12 12 12 13 12 10 9 8 10 15 18 18 18 18 17 17 18 19 21 22 23 23 24 26 30 35 35 31 27 25 24 22 20 20 22 25 26 27 27
3 3 1 2 3 1 3 4 3 3 4 3 3 4 5 5 5 4 4 3 3 3 2 1 1 5 8 8 7 6 7 9 11 13 15 17 17 17 17 17 16 16 16 15 13 13 12 12 12 12 12 12 12 10 8 8 12 15 16 16 16 17 19 20 21 22 23 22 21 22 24 27 31 32 29 25 25 25 23 21 22 25 27 27 28 28
2 3 4 1 3 5 6 7 5 5 6 6 5 5 6 6 6 6 5 4 4 4 2 1 2 6 9 7 6 8 10 11 13 15 15 16 17 16 16 17 16 15 15 14 13 13 12 11 12 12 12 12 13 11 9 8 9 9 9 10 11 13 16 18 19 20 21 20 19 20 22 24 28 29 26 25 25 24 22 22 24 27 28 28 27 27
1 3 3 1 3 4 5 7 6 7 8 7 7 6 7 9 9 8 7 6 6 5 4 4 6 9 10 7 8 11 13 13 15 17 16 16 16 16 16 16 16 15 15 14 14 13 12 12 14 14 12 12 12 11 9 8 9 8 8 9 10 10 12 15 16 17 18 18 19 20 21 24 27 27 26 25 24 22 20 21 24 26 26 27 27 26
2 4 2 2 3 3 6 6 6 8 9 8 8 7 7 9 10 10 9 9 8 9 9 9 10 11 10 9 10 13 14 14 15 17 17 16 16 16 15 16 15 15 14 14 13 12 11 12 15 16 14 12 12 12 11 9 8 8 8 9 10 9 10 12 13 14 15 16 18 20 22 25 26 26 25 24 22 20 19 20 23 24 24 25 25 25
4 5 2 4 5 6 7 4 5 8 7 7 8 8 7 8 10 10 11 11 12 12 13 13 13 13 12 11 12 15 16 15 15 16 16 16 15 15 15 15 15 15 14 13 12 11 11 13 16 16 15 13 12 12 12 11 10 8 6 7 8 8 9 9 9 12 16 17 18 20 22 23 24 25 25 22 19 17 17 19 22 23 23 23 24 23
1 2 1 4 5 6 6 4 4 6 5 5 6 6 6 8 10 10 11 13 13 14 15 16 18 20 18 15 15 19 21 19 17 16 16 16 16 15 15 15 15 14 13 12 12 12 13 15 16 16 14 12 11 12 12 12 11 9 7 6 6 7 8 8 9 13 16 17 18 19 21 22 24 24 23 21 18 17 17 19 22 23 23 23 23 22
1 1 0 2 3 5 7 6 4 5 6 5 4 5 8 10 11 11 12 12 12 13 14 15 18 21 23 23 23 25 27 25 21 20 19 18 17 16 15 14 14 14 13 12 11 12 13 14 14 14 13 12 12 11 11 11 10 8 7 8 7 7 7 8 10 13 15 16 17 18 19 21 23 24 22 21 20 19 19 21 23 23 23 22 21 21
Wind_Direction
195 196 203 205 205 201 200 206 208 215 216 192 184 189 190 192 198 203 195 176 185 196 203 207 212 219 225 220 206 194 195 207 214 213 215 213 211 209 209 212 210 198 188 183 181 186 189 191 194 192 191 195 198 201 202 200 196 194 197 195 190 185 185 191 188 183 183 186 190 193 195 197 194 194 193 190 187 188 197 204 205 207 205 201 193 175
199 208 211 207 207 202 198 206 206 210 209 185 182 188 191 204 201 197 194 175 185 204 203 204 214 219 223 221 207 198 196 203 211 213 214 213 211 213 214 217 213 193 180 178 176 184 191 191 194 195 194 195 197 198 198 200 196 191 193 192 189 186 189 191 184 183 187 187 191 194 197 199 195 192 196 193 188 191 200 204 205 207 201 197 192 172
202 216 212 202 205 204 195 199 200 198 193 181 185 192 192 202 197 187 188 179 182 204 204 199 211 221 220 221 208 200 201 203 209 215 216 214 213 214 216 217 210 192 181 181 179 187 195 194 195 198 198 197 198 197 195 198 197 191 192 192 188 187 192 194 186 184 188 191 193 193 194 196 192 191 196 194 192 196 201 205 205 204 198 194 187 178
203 212 208 198 199 202 194 191 193 192 192 192 190 191 195 193 189 185 185 184 184 203 216 200 207 224 218 216 208 198 204 209 213 218 221 220 218 217 216 214 208 198 192 186 184 190 195 196 199 201 202 200 197 196 194 195 194 191 192 193 192 191 192 193 188 183 189 195 194 192 192 190 190 191 192 193 195 197 200 205 204 199 195 189 183 183
208 199 195 194 190 191 188 185 191 195 195 201 199 197 198 187 192 199 179 179 185 203 223 207 203 223 210 199 199 198 206 213 214 216 221 223 223 223 219 216 210 204 200 193 189 190 194 199 202 203 204 201 197 197 195 194 195 194 193 195 194 190 188 189 187 183 188 194 191 190 189 187 190 193 192 192 195 195 197 200 201 197 193 188 182 173
212 197 190 192 189 190 189 186 193 197 194 198 201 205 200 182 189 193 165 169 185 199 209 208 209 218 204 200 202 197 200 207 207 210 216 220 222 223 222 221 217 209 202 197 194 192 196 203 205 206 206 203 200 199 196 197 199 195 192 195 191 184 187 189 188 187 188 189 188 190 190 187 190 193 190 191 194 196 194 194 198 195 190 190 180 162
207 193 191 194 192 193 195 194 192 194 197 193 192 202 202 182 182 178 166 176 199 197 193 203 220 221 199 204 205 194 193 201 201 206 215 219 221 221 222 223 220 212 202 196 196 197 200 204 206 208 209 207 203 199 197 196 196 193 191 192 188 186 192 194 196 196 195 194 193 194 193 189 191 193 189 190 194 194 191 189 190 189 187 187 181 179
199 187 193 197 194 191 194 195 188 192 206 189 176 188 193 185 186 182 179 193 206 184 178 196 217 237 211 200 195 188 191 199 199 204 214 219 219 219 221 223 220 211 201 194 195 199 202 206 210 210 210 209 204 201 200 197 197 195 191 189 187 190 195 196 201 202 199 197 194 192 193 194 194 193 190 190 192 191 192 190 184 181 185 186 193 209
194 191 194 196 193 188 192 190 181 191 209 170 164 179 189 190 193 189 193 208 202 179 185 194 207 232 225 181 175 183 193 201 202 206 212 215 216 218 220 220 217 209 201 197 197 199 203 208 213 213 213 209 205 206 204 201 200 193 186 189 194 198 199 197 201 200 190 186 186 189 194 197 196 195 195 194 196 197 195 192 183 177 183 188 204 231
188 199 197 193 193 186 189 185 177 191 202 147 154 169 176 182 188 192 203 211 199 206 214 193 192 216 223 179 171 183 197 203 204 207 211 212 211 213 214 214 212 206 200 199 198 201 205 212 217 215 216 213 208 207 203 203 202 189 184 192 197 200 199 197 197 193 186 180 180 190 197 197 195 195 194 193 200 202 193 187 183 176 181 191 206 234
184 201 201 196 197 185 183 178 177 191 187 145 157 163 160 170 179 191 212 214 205 217 220 197 190 207 226 198 183 188 201 205 205 205 205 207 208 209 211 211 207 201 198 198 199 202 207 214 219 218 217 214 210 206 199 201 195 180 184 196 201 201 196 194 195 192 193 187 185 194 199 196 195 196 196 198 202 198 187 183 181 175 179 189 197 212
188 196 193 196 200 187 175 167 175 191 186 160 169 168 158 168 175 183 202 213 218 219 214 202 194 204 224 211 182 191 205 206 206 206 201 201 206 208 209 208 204 199 197 196 198 202 205 210 215 217 215 209 208 204 196 198 188 175 190 200 202 203 196 193 196 194 195 195 195 200 201 197 195 200 210 208 201 192 183 180 178 175 176 184 186 179
188 188 182 188 198 190 175 165 172 187 191 184 181 175 171 168 170 188 194 199 216 218 204 195 190 203 225 224 187 195 204 204 205 209 206 204 208 209 209 205 198 197 196 194 196 198 202 208 212 215 212 204 203 200 192 194 191 195 206 193 191 199 197 194 195 193 192 197 204 206 204 199 195 207 219 210 198 187 181 180 180 176 174 176 175 167
174 184 184 183 189 191 187 176 172 181 189 193 187 180 182 173 174 190 190 192 205 201 178 185 190 208 226 227 222 213 203 198 202 210 215 213 212 210 208 200 192 193 194 193 195 197 202 208 211 213 210 201 198 191 187 188 187 196 195 174 178 188 192 196 195 192 192 197 204 203 201 198 196 210 215 207 200 186 178 183 179 174 176 172 163 160
171 178 184 183 178 187 195 189 177 177 183 194 195 193 196 185 180 190 187 192 196 179 162 178 194 211 208 197 210 214 209 197 196 201 208 210 204 197 194 190 188 191 194 195 197 199 204 208 209 212 206 198 190 180 180 182 177 182 182 174 178 181 186 194 192 191 193 194 194 193 193 193 198 211 210 203 201 187 180 182 172 172 174 162 157 156
180 176 178 187 180 180 194 192 179 178 179 190 199 203 208 200 180 176 171 181 183 174 169 179 198 212 198 161 166 198 205 202 198 198 201 202 194 187 186 186 188 192 194 196 198 200 203 206 205 207 201 192 184 175 176 178 175 180 182 180 181 179 183 189 187 190 194 188 184 186 189 189 196 210 207 202 200 188 182 177 172 177 170 158 162 157
184 170 169 185 184 181 194 191 183 187 177 181 198 202 205 209 189 160 103 71 144 184 176 182 200 200 208 231 205 194 197 198 199 202 206 204 193 190 193 190 188 191 194 195 196 198 199 201 202 202 198 189 180 174 174 176 179 186 185 177 177 180 184 185 184 188 191 186 183 183 184 184 193 206 206 203 199 191 185 177 174 177 170 170 174 160
178 153 164 182 182 183 194 189 189 203 193 178 194 189 181 196 212 186 166 139 177 199 172 175 200 206 210 215 191 195 203 200 198 197 196 192 188 193 196 192 188 190 192 192 193 196 197 199 200 198 193 187 179 174 174 176 179 185 185 180 181 184 183 183 183 184 186 186 186 185 182 182 191 203 206 204 200 193 187 180 177 175 174 181 178 167
178 150 162 183 181 178 189 187 191 208 211 206 194 172 169 185 189 190 186 173 186 204 190 183 201 210 211 198 172 190 202 202 197 189 185 186 190 195 192 187 187 186 187 188 189 192 195 197 197 193 187 180 174 174 177 175 174 183 188 189 190 187 181 179 180 181 184 187 187 186 182 182 193 202 204 203 198 191 187 183 179 175 175 181 183 174
183 165 161 182 181 172 182 193 194 194 199 216 201 180 194 208 194 190 194 184 187 201 205 191 194 205 210 209 196 188 192 199 196 186 191 197 192 189 185 182 184 183 183 186 188 191 194 194 194 191 183 174 171 174 176 173 172 183 190 189 189 186 179 179 179 180 185 188 189 188 182 183 196 204 204 200 194 187 184 184 183 178 178 187 194 174
180 170 158 173 177 176 184 197 197 184 180 200 197 185 195 200 196 195 196 210 206 201 202 195 198 207 201 205 216 206 184 186 188 184 196 200 185 179 179 178 179 179 179 183 187 190 192 192 192 189 180 173 173 174 175 175 174 180 189 187 185 181 178 179 180 179 182 186 190 190 185 185 196 204 204 197 190 185 182 183 185 181 186 197 194 169
184 171 162 168 175 185 189 188 196 190 183 195 196 187 190 188 190 191 186 204 221 214 208 203 213 211 173 184 212 216 192 165 172 183 187 181 175 171 171 173 174 175 178 182 186 189 190 190 187 182 175 172 175 174 175 180 174 172 185 191 187 181 179 180 180 178 180 185 190 192 189 191 196 201 202 193 186 184 182 185 186 183 192 203 189 166
210 179 167 167 175 186 182 182 201 198 185 196 207 195 193 192 197 196 177 183 198 209 199 192 208 174 109 132 192 188 154 140 165 196 181 165 167 164 162 167 171 175 178 181 184 186 186 186 182 179 173 172 175 174 177 183 175 168 180 189 186 182 181 182 181 180 183 187 192 191 190 195 197 198 197 190 185 183 183 187 186 184 195 204 182 166
210 195 167 161 165 178 177 179 201 203 187 196 209 201 197 194 199 209 188 165 180 188 168 169 197 157 89 84 117 112 119 154 161 188 171 155 157 161 162 166 171 175 177 179 182 182 182 181 180 178 174 172 174 174 177 182 176 171 177 183 184 184 184 184 184 184 186 190 192 191 192 196 197 194 194 191 185 183 184 188 185 185 200 207 178 165
193 187 165 160 161 165 170 177 193 201 195 198 201 197 197 193 194 206 203 173 183 190 186 190 185 140 98 103 117 119 146 159 138 147 154 150 155 161 164 167 170 172 174 177 178 178 179 180 179 178 174 172 175 176 176 176 173 174 180 182 184 185 183 184 184 184 187 191 192 191 193 196 195 192 191 190 186 183 184 188 186 188 203 205 178 166
190 189 171 170 169 166 176 183 185 189 191 195 195 191 193 194 193 196 196 190 190 181 190 220 161 110 114 129 121 126 149 145 129 135 145 150 155 161 164 167 169 171 173 175 176 176 180 180 178 177 174 171 174 176 175 173 173 180 186 185 184 184 183 180 180 181 187 192 193 193 194 194 192 190 189 189 187 183 184 189 189 193 202 200 183 174
194 201 188 188 188 180 179 182 181 183 186 191 192 190 191 195 195 195 195 197 193 170 186 226 244 86 123 133 113 117 142 135 131 140 147 151 155 162 165 165 168 171 173 174 175 178 180 180 179 177 174 172 173 174 175 175 178 185 191 188 183 183 182 180 179 180 184 190 193 194 192 190 188 188 190 190 186 182 186 190 190 197 205 197 184 180
200 192 190 208 207 191 167 162 177 184 188 190 191 190 190 193 195 199 204 201 195 193 200 214 234 250 170 124 86 85 105 123 140 151 155 157 158 162 164 165 168 171 173 174 176 179 180 179 179 177 175 173 173 174 175 176 179 183 188 191 189 186 184 183 184 184 184 189 193 194 193 191 189 190 191 190 186 184 188 190 190 198 205 194 182 181
207 182 173 215 213 192 161 158 174 180 185 188 188 188 190 192 194 199 205 205 199 203 203 185 223 240 240 5 47 62 65 109 150 155 158 159 162 164 165 167 170 171 173 174 176 178 178 178 177 177 176 175 175 175 174 177 180 179 182 190 196 196 193 190 190 189 188 193 198 198 197 195 193 193 192 189 187 188 191 191 192 199 202 191 181 181
218 177 158 212 213 197 184 174 174 177 181 185 187 186 189 192 194 198 204 208 212 220 239 12 321 273 277 324 23 55 65 118 139 148 160 163 163 165 166 168 171 173 173 174 175 176 177 178 177 176 176 176 175 175 175 180 183 183 185 191 196 198 198 196 196 195 192 194 200 201 199 196 193 192 192 189 187 189 191 191 194 201 202 193 183 182
217 165 149 225 214 194 193 185 181 185 183 184 188 187 188 191 192 198 205 207 219 234 249 286 290 277 271 58 60 78 105 142 148 155 168 169 165 167 170 172 173 173 173 173 174 176 177 178 178 179 180 178 175 176 179 183 187 190 193 194 196 199 202 202 201 198 193 192 199 201 199 197 195 192 191 190 186 187 190 192 196 202 201 195 190 186
211 178 165 224 216 184 182 183 185 187 186 189 193 190 190 191 191 197 204 206 214 229 238 251 261 254 113 99 105 128 146 166 172 171 174 174 170 171 175 176 174 173 173 174 175 175 177 179 180 181 181 181 180 179 181 183 185 189 192 194 197 198 200 205 206 201 194 189 193 197 198 200 198 191 188 188 187 188 191 193 198 204 202 199 194 189
196 197 182 216 209 169 174 181 180 179 188 197 198 192 190 190 192 196 201 207 216 225 230 234 243 32 66 53 28 139 164 194 196 181 178 180 177 175 177 177 175 174 174 175 176 177 178 180 182 183 182 185 186 184 186 187 186 184 188 194 199 198 200 208 209 201 194 189 186 192 198 201 198 190 187 188 189 190 192 194 198 203 204 201 197 193
194 207 182 212 210 163 169 177 178 182 193 195 185 191 193 192 193 194 198 208 215 222 233 241 260 331 347 325 328 352 132 227 218 187 182 184 181 177 175 173 174 174 174 175 176 177 178 180 183 184 184 188 190 188 191 195 196 193 190 191 195 197 201 208 207 203 201 195 193 197 200 199 195 192 191 191 192 194 193 193 199 206 207 204 198 195
260 244 168 231 221 160 163 174 185 191 188 101 96 184 193 195 198 198 203 211 213 218 231 241 256 286 307 311 314 323 337 324 238 190 185 185 182 177 171 170 173 173 171 174 175 175 177 179 180 181 182 187 194 192 189 191 196 201 198 191 189 191 196 200 203 206 207 202 199 202 203 199 194 194 196 196 197 196 192 194 205 213 210 206 201 198
270 328 318 253 190 154 165 179 186 164 115 94 103 146 164 184 197 202 210 216 215 220 230 238 248 265 287 304 302 305 323 318 241 202 189 182 176 172 170 169 171 171 170 170 171 173 175 177 178 178 177 182 191 193 191 195 204 211 211 203 194 191 193 195 197 199 201 202 203 204 204 200 195 195 201 201 197 192 191 198 214 221 212 202 200 200
278 332 321 276 190 179 176 171 160 139 140 136 136 156 166 180 191 197 212 223 222 227 235 239 246 253 266 287 288 292 294 249 228 197 183 178 173 169 166 166 167 166 165 164 166 169 170 171 175 179 177 178 184 188 194 205 213 216 216 212 206 200 194 191 194 197 198 200 204 204 202 203 202 199 200 201 197 191 192 202 214 220 210 198 196 197
278 313 305 300 268 224 184 165 162 175 178 156 125 132 128 106 164 185 210 224 221 227 232 234 240 243 250 262 254 236 230 234 215 171 167 170 169 162 155 155 158 156 155 156 160 164 164 165 171 178 179 179 181 185 191 198 204 206 209 211 209 204 193 186 195 203 203 204 209 208 203 205 207 201 198 201 201 196 196 204 212 219 212 199 194 196
264 279 286 280 253 232 194 172 170 172 154 122 120 120 107 95 121 153 205 217 206 208 211 213 223 227 226 229 221 210 222 224 151 126 149 160 162 157 150 144 144 145 144 147 153 157 159 162 167 171 176 179 183 189 194 196 197 198 202 206 207 203 200 199 201 208 211 213 217 215 208 207 207 203 202 205 204 199 200 206 212 219 211 198 194 196
255 246 258 260 238 232 214 177 152 117 90 104 109 105 113 132 142 166 199 202 161 165 187 197 206 208 207 210 206 204 237 257 71 97 134 148 150 149 146 140 136 134 134 136 145 153 157 159 162 167 173 179 185 195 199 199 201 203 208 215 217 216 217 216 213 216 224 225 223 219 213 208 206 205 209 208 204 201 203 206 213 218 207 197 196 196
237 225 243 252 223 211 211 177 132 98 85 83 76 100 129 146 165 185 194 151 85 120 164 182 194 197 200 202 192 164 12 357 87 120 128 137 139 136 132 132 129 126 127 133 142 149 151 152 156 162 169 174 182 194 197 195 200 206 209 217 222 224 225 226 224 225 228 227 225 220 213 208 204 205 210 210 206 205 204 204 215 218 202 195 195 194
226 217 220 231 217 197 187 171 139 112 72 31 59 115 154 170 169 171 152 56 59 114 138 166 195 201 199 192 181 114 23 41 117 132 132 135 135 129 127 127 125 124 127 131 135 140 144 147 150 155 164 171 178 188 189 186 194 204 209 215 222 227 231 233 233 229 226 224 223 220 214 209 206 204 207 208 208 207 205 206 213 208 195 193 194 193
281 230 192 177 192 195 177 173 164 130 84 13 75 135 179 204 119 56 34 81 98 57 142 183 201 208 200 183 166 94 29 83 110 126 135 137 132 130 133 131 125 125 128 129 131 137 141 144 148 156 167 174 174 178 183 190 199 203 203 210 220 227 231 232 230 227 228 229 229 226 220 214 209 204 203 204 205 206 208 213 212 199 191 193 195 194
335 274 187 136 71 213 176 159 143 98 76 2 345 119 98 4 11 358 353 67 68 34 293 209 203 202 192 171 147 108 83 104 114 125 134 135 133 133 133 129 124 124 127 129 133 135 135 139 149 161 170 174 174 172 174 192 209 211 208 212 223 230 233 236 236 234 235 237 237 232 226 220 214 207 202 201 203 205 209 217 214 199 192 195 197 196
9 348 299 29 29 48 104 86 63 75 74 28 5 32 26 12 9 356 350 15 25 14 354 317 206 179 170 154 126 99 101 113 121 128 132 132 131 129 126 124 125 126 128 130 132 130 130 137 148 158 163 163 163 165 168 187 210 215 216 224 234 237 237 241 244 242 239 239 237 231 225 220 215 207 202 203 207 209 212 216 211 199 195 198 200 199
32 329 288 271 117 105 80 76 78 68 53 38 32 31 21 19 22 20 19 23 16 7 358 2 107 145 153 142 100 94 109 120 126 130 131 128 125 123 123 124 126 127 129 130 129 128 131 136 142 147 150 151 154 160 171 188 202 207 213 227 237 238 238 242 244 240 238 238 234 228 222 217 210 204 204 207 209 212 217 216 209 200 197 200 202 202
60 306 275 161 146 142 96 77 66 50 36 27 29 32 30 34 36 36 40 41 35 40 63 81 98 122 131 110 84 97 111 119 124 126 127 125 124 123 124 125 125 126 127 128 128 129 130 135 140 142 140 142 150 158 168 184 196 202 213 229 237 237 240 244 241 236 234 233 229 223 217 212 205 199 200 203 206 209 214 212 206 201 200 202 204 203
1 318 296 103 90 101 100 90 77 65 43 22 26 29 20 30 43 52 59 59 58 67 77 83 97 111 108 88 86 102 110 115 121 122 121 122 122 121 123 123 123 123 123 124 125 126 126 129 134 137 139 143 150 156 158 167 184 203 222 238 243 241 243 247 241 231 228 226 223 220 216 210 203 199 198 200 203 207 208 204 201 201 203 206 207 205
3 336 346 113 102 94 94 99 105 93 63 28 34 35 20 33 54 64 72 73 72 75 80 86 93 97 93 91 99 105 104 104 110 113 115 117 117 117 119 120 120 121 121 120 121 122 124 126 129 133 139 144 147 152 152 155 165 180 203 228 233 228 232 243 238 224 222 220 217 217 214 206 199 198 201 204 207 209 208 204 201 201 205 210 212 211
52 329 136 134 127 119 123 137 127 105 90 56 40 28 25 49 66 74 77 76 73 75 80 87 90 89 88 90 99 103 101 101 103 105 107 109 111 114 115 115 116 117 118 119 120 120 122 126 130 134 140 142 145 150 153 155 162 172 179 187 198 201 209 223 223 216 217 219 216 215 211 204 198 198 202 209 214 214 208 203 201 202 207 212 213 213
124 244 175 122 111 114 122 121 92 82 95 88 53 34 42 55 67 74 74 72 75 77 80 83 87 90 92 95 99 102 102 103 105 107 106 106 106 108 108 109 112 113 113 115 116 117 120 125 128 133 140 147 152 157 160 160 163 170 173 172 177 181 184 199 211 212 214 218 217 215 210 203 198 197 201 208 216 215 206 200 199 202 208 211 212 211
Height
1467 1465 1462 1456 1453 1451 1452 1452 1449 1448 1446 1448 1453 1456 1457 1459 1458 1455 1456 1458 1460 1465 1467 1467 1469 1469 1468 1467 1468 1472 1476 1477 1478 1479 1480 1481 1483 1485 1487 1488 1490 1493 1495 1496 1498 1499 1501 1503 1504 1505 1506 1508 1510 1512 1514 1516 1518 1520 1521 1523 1525 1526 1529 1532 1534 1536 1538 1540 1542 1544 1546 1548 1550 1552 1553 1555 1556 1557 1558 1559 1559 1560 1560 1561 1561 1561
1463 1459 1453 1450 1450 1450 1454 1454 1451 1451 1449 1448 1452 1454 1455 1456 1454 1452 1454 1457 1459 1462 1463 1464 1466 1465 1464 1463 1464 1468 1473 1475 1476 1477 1478 1480 1482 1484 1485 1487 1489 1492 1494 1495 1496 1498 1499 1501 1502 1503 1504 1506 1509 1510 1512 1514 1516 1518 1520 1521 1523 1524 1527 1529 1531 1534 1536 1539 1541 1543 1545 1547 1549 1551 1553 1554 1555 1557 1558 1558 1559 1560 1560 1560 1560 1560
1458 1452 1447 1449 1450 1450 1453 1453 1452 1453 1450 1449 1450 1450 1452 1451 1449 1452 1454 1456 1459 1461 1460 1461 1464 1463 1461 1460 1461 1465 1469 1471 1474 1475 1476 1478 1480 1482 1483 1485 1488 1490 1492 1493 1494 1496 1498 1499 1500 1501 1503 1504 1507 1508 1510 1512 1514 1516 1518 1519 1521 1523 1524 1526 1529 1532 1535 1537 1539 1541 1543 1546 1549 1550 1552 1553 1555 1556 1557 1558 1559 1559 1559 1559 1560 1560
1452 1447 1446 1447 1449 1450 1451 1452 1453 1453 1450 1448 1446 1448 1449 1446 1449 1456 1456 1457 1459 1460 1458 1458 1462 1460 1458 1459 1459 1463 1466 1468 1471 1473 1475 1477 1478 1480 1482 1484 1486 1488 1490 1491 1492 1494 1496 1497 1498 1499 1500 1502 1505 1506 1508 1510 1511 1513 1515 1517 1519 1520 1523 1526 1528 1531 1534 1536 1538 1540 1543 1545 1547 1549 1550 1552 1554 1555 1556 1557 1558 1559 1559 1559 1559 1559
1444 1442 1444 1445 1447 1449 1450 1452 1453 1453 1451 1447 1444 1445 1444 1443 1447 1450 1452 1456 1459 1460 1458 1458 1465 1461 1455 1459 1462 1462 1465 1467 1469 1472 1473 1476 1477 1479 1480 1482 1484 1486 1488 1490 1491 1492 1493 1495 1495 1496 1498 1500 1502 1504 1506 1507 1509 1511 1513 1515 1517 1520 1523 1525 1528 1530 1533 1535 1537 1540 1542 1544 1545 1547 1549 1551 1553 1554 1555 1557 1558 1558 1558 1559 1559 1559
1441 1439 1442 1445 1448 1450 1450 1451 1451 1450 1449 1448 1444 1441 1440 1442 1446 1447 1450 1456 1463 1466 1459 1458 1470 1464 1451 1455 1459 1459 1463 1466 1467 1470 1471 1473 1475 1477 1478 1480 1482 1484 1486 1488 1489 1490 1491 1492 1493 1494 1495 1497 1499 1502 1503 1505 1507 1509 1512 1514 1517 1520 1523 1525 1527 1529 1531 1533 1535 1537 1540 1542 1544 1545 1547 1550 1552 1553 1554 1556 1557 1557 1558 1558 1558 1558
1440 1440 1443 1446 1449 1449 1448 1448 1448 1447 1448 1449 1445 1440 1440 1442 1446 1449 1451 1456 1461 1461 1454 1454 1465 1461 1450 1450 1453 1454 1460 1463 1465 1468 1468 1470 1472 1474 1475 1476 1479 1481 1483 1485 1487 1488 1489 1489 1490 1491 1493 1495 1497 1499 1502 1504 1506 1508 1511 1514 1517 1520 1523 1525 1526 1528 1529 1531 1533 1536 1539 1542 1543 1545 1547 1549 1551 1552 1553 1554 1555 1557 1557 1557 1558 1557
1438 1442 1445 1446 1446 1445 1446 1445 1444 1445 1445 1444 1442 1442 1444 1443 1446 1448 1450 1453 1450 1449 1452 1452 1455 1457 1449 1445 1445 1450 1457 1460 1462 1465 1466 1467 1469 1470 1472 1474 1476 1479 1481 1482 1484 1485 1486 1486 1487 1489 1490 1492 1496 1498 1500 1502 1504 1507 1510 1514 1519 1521 1523 1524 1525 1527 1528 1530 1532 1536 1539 1542 1543 1545 1547 1548 1549 1550 1551 1552 1554 1556 1556 1556 1557 1557
1437 1442 1444 1442 1442 1441 1441 1440 1441 1444 1443 1438 1439 1443 1445 1444 1445 1445 1448 1449 1442 1449 1460 1454 1452 1459 1452 1441 1442 1448 1453 1457 1458 1460 1461 1462 1465 1467 1469 1472 1474 1476 1478 1479 1481 1483 1483 1484 1485 1486 1488 1490 1494 1496 1498 1500 1503 1505 1510 1515 1519 1522 1523 1524 1525 1526 1528 1529 1532 1536 1539 1541 1542 1544 1546 1547 1548 1549 1550 1551 1553 1554 1555 1555 1556 1556
1439 1441 1440 1438 1438 1438 1437 1438 1440 1443 1440 1436 1440 1444 1444 1445 1445 1446 1448 1446 1446 1459 1462 1449 1449 1460 1454 1443 1445 1450 1450 1451 1451 1452 1455 1457 1461 1464 1466 1469 1471 1473 1476 1477 1479 1480 1481 1481 1482 1484 1486 1488 1492 1494 1497 1500 1501 1503 1509 1516 1519 1521 1523 1524 1524 1526 1528 1529 1531 1534 1537 1539 1541 1543 1545 1546 1547 1548 1549 1550 1551 1552 1553 1554 1555 1555
1440 1441 1439 1436 1435 1435 1435 1437 1440 1441 1438 1438 1442 1444 1447 1448 1447 1449 1447 1444 1455 1465 1456 1442 1442 1453 1453 1440 1438 1446 1443 1441 1444 1447 1450 1453 1457 1461 1463 1466 1468 1471 1473 1475 1476 1478 1478 1479 1480 1482 1484 1486 1490 1493 1497 1500 1499 1502 1510 1515 1516 1518 1520 1522 1524 1525 1528 1530 1531 1534 1537 1539 1540 1542 1545 1546 1546 1547 1548 1549 1550 1551 1552 1553 1553 1553
1440 1439 1438 1436 1434 1433 1435 1438 1441 1440 1438 1439 1441 1442 1449 1454 1453 1456 1455 1454 1465 1466 1448 1437 1438 1449 1454 1437 1428 1435 1436 1435 1440 1443 1446 1449 1452 1456 1460 1462 1465 1468 1470 1472 1474 1475 1476 1477 1478 1479 1481 1484 1488 1492 1496 1498 1499 1503 1507 1510 1511 1514 1517 1520 1523 1525 1527 1531 1533 1534 1536 1539 1541 1542 1544 1546 1546 1546 1547 1548 1549 1550 1550 1551 1551 1551
1439 1435 1434 1436 1434 1432 1435 1439 1441 1441 1439 1439 1438 1439 1449 1457 1462 1466 1462 1461 1465 1456 1439 1434 1439 1448 1447 1431 1425 1430 1431 1433 1437 1438 1441 1445 1448 1452 1455 1459 1462 1465 1467 1469 1470 1472 1473 1474 1475 1476 1478 1482 1487 1491 1494 1495 1498 1501 1503 1506 1510 1513 1517 1520 1522 1525 1527 1530 1533 1534 1536 1539 1541 1542 1544 1545 1545 1546 1546 1547 1548 1549 1549 1549 1550 1550
1440 1435 1433 1435 1435 1433 1433 1433 1437 1438 1437 1436 1433 1435 1442 1450 1464 1469 1461 1460 1461 1451 1441 1437 1443 1450 1443 1430 1427 1428 1428 1430 1433 1436 1439 1441 1444 1448 1451 1456 1459 1461 1464 1466 1467 1468 1469 1470 1472 1474 1477 1481 1485 1490 1492 1493 1497 1499 1502 1506 1509 1512 1516 1519 1522 1525 1525 1527 1531 1533 1535 1539 1541 1542 1543 1543 1544 1545 1546 1547 1548 1548 1548 1548 1549 1549
1440 1438 1432 1431 1432 1432 1429 1427 1429 1430 1433 1433 1427 1429 1433 1435 1450 1459 1452 1454 1454 1448 1448 1448 1449 1451 1443 1430 1424 1425 1427 1429 1432 1436 1439 1441 1444 1447 1450 1454 1457 1459 1461 1463 1464 1465 1466 1467 1470 1472 1476 1480 1484 1488 1489 1491 1495 1498 1501 1504 1506 1510 1515 1517 1521 1523 1523 1525 1529 1531 1534 1537 1539 1541 1542 1542 1543 1544 1546 1546 1547 1547 1548 1548 1548 1548
1436 1434 1427 1427 1427 1428 1429 1425 1425 1428 1433 1434 1427 1430 1433 1425 1431 1444 1443 1442 1442 1445 1451 1453 1448 1438 1430 1426 1423 1425 1428 1429 1433 1436 1438 1442 1444 1447 1450 1452 1454 1456 1458 1459 1460 1462 1463 1465 1468 1471 1475 1479 1483 1486 1487 1490 1493 1495 1498 1501 1504 1509 1513 1515 1519 1521 1522 1524 1527 1530 1532 1534 1536 1539 1540 1541 1542 1543 1545 1545 1546 1547 1547 1547 1547 1547
1432 1429 1424 1427 1426 1426 1428 1425 1423 1426 1429 1431 1429 1431 1427 1419 1424 1440 1448 1443 1443 1451 1452 1448 1445 1435 1429 1427 1423 1425 1429 1429 1432 1435 1436 1440 1442 1445 1448 1448 1451 1453 1454 1456 1457 1459 1461 1463 1465 1469 1473 1477 1481 1484 1486 1488 1491 1492 1496 1500 1502 1505 1508 1511 1515 1518 1520 1523 1525 1528 1530 1532 1534 1536 1538 1539 1541 1542 1543 1544 1545 1546 1546 1546 1546 1546
1424 1426 1424 1426 1427 1427 1426 1425 1425 1423 1422 1427 1430 1425 1422 1426 1428 1433 1446 1452 1453 1455 1448 1444 1446 1441 1437 1433 1421 1422 1428 1428 1430 1432 1433 1437 1440 1442 1444 1446 1448 1450 1452 1454 1455 1457 1459 1461 1464 1467 1472 1476 1479 1482 1484 1486 1488 1491 1494 1497 1498 1499 1502 1507 1511 1514 1517 1519 1522 1525 1527 1530 1532 1534 1536 1538 1540 1541 1542 1543 1545 1545 1545 1545 1545 1545
1416 1426 1430 1426 1426 1427 1425 1427 1430 1425 1421 1424 1424 1420 1425 1438 1439 1434 1442 1454 1457 1456 1449 1444 1443 1439 1434 1428 1420 1422 1425 1425 1427 1429 1432 1435 1436 1439 1441 1444 1446 1447 1450 1452 1453 1456 1457 1459 1463 1466 1470 1474 1477 1480 1481 1484 1487 1490 1492 1494 1496 1497 1500 1504 1508 1511 1515 1517 1520 1523 1525 1528 1531 1533 1535 1536 1538 1540 1541 1542 1543 1544 1544 1544 1544 1544
1414 1424 1431 1426 1423 1425 1426 1428 1430 1427 1425 1425 1422 1422 1425 1430 1433 1432 1434 1439 1444 1451 1450 1445 1443 1436 1425 1418 1416 1419 1420 1421 1424 1427 1429 1431 1432 1436 1439 1441 1444 1445 1448 1450 1452 1454 1456 1458 1461 1464 1469 1472 1475 1478 1479 1482 1486 1488 1490 1493 1495 1498 1499 1502 1505 1508 1512 1515 1518 1521 1523 1527 1529 1531 1533 1535 1536 1538 1539 1541 1542 1543 1543 1543 1543 1543
1414 1419 1426 1424 1422 1425 1426 1424 1423 1423 1427 1428 1424 1426 1427 1425 1424 1426 1428 1426 1429 1440 1445 1447 1447 1433 1416 1412 1414 1415 1415 1417 1420 1423 1426 1427 1430 1434 1437 1439 1442 1444 1446 1449 1450 1453 1455 1457 1460 1463 1467 1471 1474 1476 1478 1481 1485 1488 1491 1493 1495 1497 1498 1500 1503 1507 1511 1514 1517 1520 1522 1525 1527 1529 1531 1533 1534 1536 1538 1540 1540 1541 1541 1542 1542 1543
1415 1416 1420 1421 1421 1423 1422 1418 1418 1418 1422 1425 1423 1423 1425 1425 1424 1430 1436 1429 1422 1427 1432 1439 1444 1426 1407 1409 1412 1412 1413 1415 1417 1421 1423 1426 1429 1433 1436 1438 1441 1443 1445 1447 1449 1451 1453 1455 1459 1462 1465 1469 1472 1475 1477 1480 1484 1488 1490 1492 1494 1496 1498 1500 1502 1505 1509 1513 1516 1518 1521 1523 1525 1526 1528 1530 1532 1534 1536 1538 1539 1540 1540 1541 1542 1542
1416 1414 1416 1419 1419 1419 1417 1417 1418 1417 1419 1422 1421 1419 1419 1422 1423 1429 1438 1433 1427 1427 1423 1428 1436 1422 1406 1409 1411 1412 1415 1416 1418 1420 1422 1425 1429 1432 1435 1437 1440 1442 1444 1446 1448 1450 1452 1454 1458 1461 1464 1467 1470 1474 1476 1478 1483 1487 1488 1490 1493 1496 1499 1501 1502 1505 1508 1512 1514 1517 1519 1521 1522 1524 1526 1528 1530 1532 1535 1536 1537 1539 1540 1540 1541 1541
1419 1415 1416 1419 1417 1415 1415 1417 1419 1417 1419 1422 1421 1416 1417 1420 1421 1421 1423 1423 1428 1430 1425 1431 1437 1422 1410 1412 1413 1414 1417 1417 1420 1421 1422 1426 1429 1431 1434 1436 1439 1441 1442 1445 1447 1449 1451 1454 1457 1460 1463 1466 1469 1473 1475 1477 1482 1485 1486 1490 1493 1495 1498 1500 1502 1505 1508 1510 1512 1514 1517 1519 1520 1522 1524 1526 1528 1531 1533 1535 1536 1538 1539 1539 1540 1541
1419 1414 1414 1419 1422 1424 1426 1427 1426 1422 1420 1420 1419 1417 1417 1417 1418 1419 1417 1419 1428 1426 1420 1428 1432 1419 1412 1414 1414 1415 1417 1418 1420 1422 1423 1426 1428 1431 1433 1435 1437 1440 1441 1444 1446 1448 1451 1453 1456 1459 1462 1465 1468 1471 1474 1476 1480 1483 1486 1489 1492 1494 1497 1499 1502 1504 1506 1508 1510 1512 1514 1516 1518 1520 1522 1524 1527 1529 1532 1534 1535 1537 1538 1539 1540 1540
1418 1412 1410 1417 1424 1428 1429 1425 1421 1418 1417 1416 1416 1416 1417 1416 1418 1420 1421 1428 1433 1426 1420 1422 1419 1412 1412 1413 1413 1416 1417 1418 1421 1423 1424 1426 1428 1430 1432 1434 1436 1438 1441 1443 1445 1447 1450 1452 1455 1458 1460 1464 1467 1470 1473 1475 1479 1482 1485 1489 1492 1493 1495 1498 1500 1502 1504 1506 1508 1510 1512 1514 1516 1519 1521 1523 1525 1528 1531 1533 1534 1536 1537 1538 1539 1539
1417 1412 1408 1410 1412 1412 1412 1409 1407 1409 1414 1416 1415 1416 1417 1417 1417 1419 1425 1429 1427 1425 1426 1420 1411 1413 1414 1411 1413 1416 1416 1418 1421 1423 1424 1426 1427 1429 1431 1433 1436 1438 1440 1442 1444 1447 1449 1451 1454 1457 1460 1463 1465 1468 1471 1474 1478 1481 1484 1488 1491 1492 1494 1496 1498 1500 1503 1504 1506 1509 1512 1514 1516 1518 1520 1523 1525 1527 1529 1531 1533 1535 1536 1537 1538 1539
1417 1415 1411 1410 1405 1399 1401 1404 1404 1407 1413 1415 1415 1417 1417 1417 1418 1421 1426 1424 1420 1426 1430 1417 1411 1418 1416 1409 1413 1416 1415 1418 1419 1421 1423 1425 1426 1429 1430 1433 1435 1437 1439 1441 1443 1446 1448 1451 1453 1456 1459 1462 1465 1468 1471 1473 1477 1480 1483 1486 1489 1491 1492 1494 1496 1499 1501 1503 1505 1508 1511 1514 1516 1517 1519 1522 1524 1526 1528 1530 1532 1534 1535 1536 1537 1538
1416 1414 1413 1412 1406 1398 1400 1405 1405 1407 1410 1412 1414 1417 1418 1418 1420 1423 1425 1420 1418 1424 1425 1416 1415 1420 1415 1410 1413 1415 1416 1417 1418 1420 1422 1424 1426 1428 1430 1432 1435 1436 1438 1441 1443 1446 1448 1450 1452 1455 1458 1461 1464 1467 1470 1473 1476 1479 1481 1484 1487 1489 1491 1492 1494 1497 1499 1501 1503 1506 1509 1511 1513 1515 1517 1520 1522 1525 1527 1529 1531 1532 1534 1535 1536 1537
1417 1414 1413 1413 1410 1405 1405 1406 1404 1406 1409 1411 1412 1414 1416 1418 1420 1423 1423 1420 1419 1420 1418 1418 1422 1420 1414 1413 1414 1416 1418 1418 1419 1421 1422 1423 1426 1427 1429 1432 1434 1436 1438 1440 1443 1445 1447 1450 1452 1455 1457 1460 1463 1466 1469 1471 1474 1477 1480 1482 1485 1487 1489 1490 1493 1495 1498 1500 1501 1504 1506 1509 1511 1513 1515 1518 1520 1523 1525 1527 1529 1530 1532 1533 1534 1536
1417 1415 1414 1412 1410 1410 1409 1406 1405 1405 1407 1411 1412 1412 1414 1417 1420 1423 1423 1422 1423 1422 1417 1420 1424 1420 1413 1413 1415 1418 1419 1419 1420 1422 1422 1423 1425 1427 1429 1431 1433 1435 1438 1440 1442 1445 1447 1450 1452 1454 1456 1459 1462 1465 1467 1470 1473 1476 1478 1481 1483 1486 1487 1489 1491 1493 1496 1498 1500 1502 1504 1506 1508 1511 1513 1516 1518 1520 1523 1525 1527 1528 1529 1531 1532 1534
1415 1413 1412 1411 1411 1410 1408 1408 1407 1404 1406 1412 1413 1411 1413 1416 1419 1421 1421 1421 1423 1423 1421 1423 1423 1417 1413 1413 1416 1418 1418 1418 1419 1420 1422 1423 1424 1426 1428 1430 1433 1435 1437 1440 1442 1444 1447 1449 1451 1453 1456 1458 1461 1464 1467 1469 1471 1474 1476 1479 1482 1484 1485 1487 1488 1491 1494 1495 1498 1500 1502 1505 1506 1508 1511 1514 1516 1518 1521 1523 1524 1526 1527 1528 1530 1532
1414 1412 1410 1411 1411 1408 1407 1407 1406 1407 1413 1416 1410 1407 1410 1413 1415 1418 1419 1419 1419 1419 1422 1422 1416 1412 1412 1414 1415 1416 1417 1418 1418 1419 1422 1423 1424 1426 1428 1430 1433 1435 1437 1440 1442 1444 1446 1448 1451 1453 1455 1457 1459 1462 1465 1468 1471 1473 1475 1477 1480 1482 1483 1485 1486 1489 1491 1493 1496 1498 1500 1503 1505 1507 1509 1512 1514 1517 1518 1520 1522 1523 1525 1526 1528 1530
1415 1412 1411 1410 1409 1409 1408 1405 1407 1415 1421 1415 1404 1401 1406 1410 1413 1417 1418 1417 1417 1417 1418 1415 1410 1410 1413 1414 1414 1416 1417 1417 1418 1420 1422 1422 1424 1426 1428 1430 1433 1434 1437 1439 1441 1444 1447 1448 1451 1454 1455 1457 1459 1461 1464 1467 1469 1472 1474 1476 1478 1480 1482 1483 1485 1488 1490 1491 1494 1496 1498 1501 1503 1505 1508 1510 1513 1515 1516 1518 1520 1521 1523 1524 1526 1528
1417 1413 1413 1411 1407 1407 1406 1408 1419 1425 1418 1409 1404 1403 1404 1407 1409 1413 1415 1413 1414 1416 1415 1413 1413 1413 1413 1414 1415 1416 1417 1418 1419 1420 1421 1423 1424 1425 1427 1430 1432 1434 1436 1439 1441 1444 1447 1449 1451 1453 1456 1458 1459 1460 1463 1465 1467 1470 1472 1475 1477 1479 1481 1482 1484 1485 1487 1490 1492 1494 1496 1499 1501 1504 1506 1509 1511 1513 1515 1517 1518 1520 1521 1523 1525 1527
1418 1416 1416 1411 1407 1407 1409 1414 1423 1421 1410 1408 1411 1408 1407 1409 1410 1414 1417 1413 1411 1412 1413 1413 1414 1414 1414 1415 1416 1417 1418 1419 1419 1420 1421 1423 1424 1426 1428 1429 1431 1434 1436 1438 1441 1443 1446 1449 1451 1453 1456 1458 1459 1460 1462 1464 1466 1468 1470 1473 1476 1478 1480 1482 1483 1484 1486 1488 1490 1492 1495 1498 1499 1501 1504 1506 1508 1511 1513 1515 1516 1518 1519 1521 1523 1525
1418 1418 1418 1413 1409 1408 1408 1410 1413 1414 1412 1411 1411 1409 1409 1410 1409 1414 1419 1416 1410 1409 1411 1412 1414 1415 1415 1417 1417 1417 1419 1419 1418 1418 1420 1422 1424 1426 1428 1429 1431 1434 1436 1439 1441 1443 1446 1449 1451 1452 1455 1457 1459 1461 1462 1463 1464 1466 1468 1470 1473 1475 1477 1479 1482 1483 1485 1488 1490 1492 1493 1495 1497 1498 1501 1503 1506 1508 1510 1512 1514 1516 1517 1519 1521 1522
1419 1419 1419 1417 1413 1405 1403 1407 1412 1417 1416 1410 1407 1408 1409 1410 1408 1411 1417 1416 1408 1407 1409 1411 1414 1415 1415 1417 1418 1418 1420 1418 1415 1415 1418 1422 1424 1426 1428 1430 1432 1434 1436 1439 1441 1443 1445 1448 1450 1452 1454 1456 1459 1461 1462 1463 1464 1465 1467 1469 1471 1474 1476 1478 1480 1481 1484 1486 1488 1490 1492 1493 1495 1497 1499 1502 1504 1506 1508 1510 1512 1514 1515 1517 1518 1520
1420 1419 1418 1418 1414 1405 1401 1404 1408 1413 1413 1408 1407 1408 1410 1412 1410 1412 1421 1418 1406 1404 1408 1410 1412 1414 1415 1417 1418 1418 1418 1415 1411 1413 1418 1421 1423 1426 1428 1430 1432 1434 1437 1439 1441 1443 1445 1447 1450 1452 1454 1456 1458 1460 1461 1463 1464 1466 1467 1469 1471 1473 1474 1477 1478 1479 1480 1482 1484 1489 1491 1491 1493 1495 1498 1501 1503 1505 1506 1508 1510 1512 1513 1515 1516 1518
1421 1420 1419 1418 1414 1407 1402 1398 1400 1408 1411 1409 1408 1409 1411 1411 1410 1417 1428 1419 1404 1404 1409 1409 1411 1414 1414 1417 1418 1418 1418 1415 1413 1417 1420 1421 1424 1427 1429 1430 1432 1434 1437 1439 1442 1444 1446 1448 1450 1451 1454 1456 1457 1459 1460 1462 1464 1466 1467 1468 1470 1472 1473 1475 1477 1478 1479 1480 1482 1486 1488 1488 1491 1493 1495 1497 1500 1502 1505 1507 1508 1510 1511 1513 1514 1516
1419 1417 1418 1416 1410 1405 1403 1399 1401 1410 1412 1409 1409 1410 1411 1412 1414 1420 1422 1413 1405 1408 1410 1409 1412 1414 1414 1417 1417 1417 1419 1418 1418 1420 1421 1423 1425 1427 1430 1431 1432 1434 1438 1440 1442 1444 1446 1448 1450 1452 1454 1456 1457 1459 1460 1462 1464 1465 1467 1468 1469 1471 1473 1474 1476 1478 1479 1479 1481 1484 1485 1487 1489 1491 1493 1495 1497 1500 1503 1505 1506 1508 1509 1511 1513 1515
1416 1414 1415 1414 1407 1401 1399 1400 1404 1412 1413 1410 1411 1411 1411 1412 1415 1414 1411 1408 1409 1411 1410 1411 1413 1413 1415 1417 1417 1418 1419 1419 1419 1421 1423 1425 1426 1427 1431 1433 1433 1435 1438 1440 1442 1445 1447 1448 1450 1452 1454 1455 1457 1458 1460 1462 1463 1465 1466 1467 1468 1469 1471 1472 1474 1476 1477 1478 1480 1482 1483 1485 1488 1490 1492 1494 1496 1498 1501 1503 1504 1506 1508 1510 1512 1514
1414 1411 1407 1406 1406 1402 1400 1403 1409 1414 1415 1412 1411 1412 1411 1410 1410 1410 1409 1410 1411 1411 1411 1413 1414 1414 1415 1417 1418 1419 1420 1419 1421 1423 1425 1427 1428 1429 1432 1434 1434 1436 1438 1441 1443 1445 1447 1448 1450 1451 1453 1455 1457 1458 1459 1461 1462 1463 1465 1466 1467 1469 1470 1470 1472 1474 1474 1475 1477 1479 1481 1483 1485 1488 1490 1492 1495 1497 1499 1501 1502 1504 1506 1509 1511 1513
1413 1410 1404 1402 1406 1406 1404 1409 1414 1415 1414 1413 1411 1411 1411 1410 1411 1411 1411 1410 1410 1411 1412 1413 1413 1414 1416 1417 1419 1421 1420 1420 1422 1424 1426 1428 1430 1431 1433 1434 1434 1436 1439 1442 1444 1445 1447 1449 1450 1451 1452 1454 1456 1457 1459 1460 1461 1462 1463 1465 1466 1467 1468 1469 1471 1471 1472 1473 1474 1476 1478 1481 1483 1486 1488 1490 1493 1496 1497 1499 1500 1503 1505 1508 1509 1511
1416 1415 1412 1411 1413 1410 1409 1413 1417 1415 1414 1414 1413 1412 1412 1412 1412 1412 1411 1411 1411 1412 1412 1413 1414 1415 1416 1418 1420 1421 1421 1422 1423 1425 1427 1429 1430 1431 1432 1433 1435 1438 1440 1442 1443 1445 1447 1448 1449 1450 1452 1453 1455 1456 1458 1459 1460 1461 1462 1464 1465 1466 1467 1468 1469 1470 1471 1472 1473 1474 1476 1479 1482 1485 1487 1490 1492 1494 1495 1497 1499 1501 1504 1506 1508 1510
1417 1417 1416 1416 1415 1413 1414 1416 1416 1415 1416 1416 1415 1414 1414 1413 1413 1412 1412 1413 1412 1412 1413 1413 1414 1415 1417 1419 1420 1420 1422 1423 1424 1426 1428 1429 1430 1431 1433 1434 1437 1438 1440 1442 1443 1445 1446 1447 1448 1450 1451 1453 1454 1456 1457 1458 1459 1460 1462 1462 1463 1464 1465 1466 1467 1468 1469 1470 1472 1473 1476 1478 1481 1484 1486 1489 1491 1493 1495 1496 1497 1500 1503 1505 1507 1509
1416 1416 1415 1414 1412 1414 1417 1418 1416 1417 1418 1417 1416 1415 1415 1414 1414 1414 1414 1414 1413 1414 1414 1414 1414 1416 1418 1420 1420 1421 1422 1424 1425 1427 1429 1430 1431 1433 1434 1436 1437 1439 1440 1441 1443 1444 1446 1446 1448 1449 1451 1452 1454 1454 1456 1458 1459 1460 1461 1461 1462 1464 1464 1465 1465 1467 1468 1469 1471 1473 1475 1478 1481 1483 1485 1487 1490 1492 1494 1495 1497 1499 1501 1504 1506 1507
1417 1416 1414 1413 1413 1415 1417 1419 1419 1419 1420 1419 1418 1417 1416 1416 1417 1416 1415 1416 1415 1415 1415 1415 1416 1418 1419 1420 1421 1421 1423 1425 1426 1428 1429 1431 1433 1434 1435 1437 1438 1439 1441 1442 1443 1445 1446 1447 1448 1449 1450 1452 1453 1454 1456 1457 1458 1459 1460 1460 1461 1463 1463 1463 1464 1466 1468 1469 1470 1472 1474 1477 1480 1483 1485 1487 1489 1491 1492 1494 1496 1498 1501 1503 1505 1506
1419 1418 1415 1414 1416 1418 1419 1419 1419 1420 1422 1421 1419 1419 1419 1419 1419 1418 1418 1418 1417 1417 1417 1417 1418 1419 1420 1421 1421 1422 1423 1426 1428 1429 1430 1432 1433 1435 1437 1438 1438 1440 1441 1443 1444 1446 1446 1447 1448 1449 1450 1451 1453 1454 1455 1456 1457 1458 1459 1460 1461 1462 1462 1463 1464 1466 1467 1468 1469 1471 1474 1476 1479 1482 1484 1486 1488 1490 1492 1493 1495 1498 1500 1502 1504 1506
1421 1420 1417 1417 1419 1420 1420 1420 1420 1421 1423 1423 1422 1422 1422 1421 1420 1420 1419 1419 1419 1419 1419 1419 1419 1420 1421 1422 1422 1422 1423 1426 1428 1430 1432 1433 1434 1436 1437 1438 1439 1441 1442 1443 1445 1446 1446 1447 1448 1449 1450 1452 1453 1454 1455 1456 1456 1457 1458 1459 1460 1461 1462 1463 1464 1465 1467 1468 1469 1471 1473 1476 1478 1480 1483 1485 1487 1489 1491 1493 1495 1497 1499 1501 1503 1505
1421 1420 1419 1419 1421 1420 1419 1420 1421 1422 1424 1425 1425 1424 1422 1421 1421 1421 1421 1420 1420 1421 1422 1422 1422 1422 1423 1424 1425 1424 1424 1426 1429 1432 1433 1434 1435 1436 1438 1439 1441 1442 1443 1444 1445 1446 1447 1448 1449 1449 1451 1452 1453 1454 1455 1455 1456 1457 1458 1458 1459 1461 1462 1463 1464 1465 1466 1467 1469 1471 1473 1475 1477 1480 1482 1484 1486 1488 1490 1491 1494 1496 1498 1500 1502 1504